Showing default

FLOCK 4H 10, 66713

Orbit data source: Space-Track

FLOCK 4H 10, 66713 is a payload satellite owned by Planet (US) in SSO that was launched on Fri, 28 Nov 2025 UTC via an FALCON 9 launch vehicle from the Air Force Western Test Range (AFWTR). Payload-class satellites include a variety of spacecraft equipped with specific instruments for various scientific and technological missions. These include communications satellites like Starlink; space stations such as the ISS; scientific satellites like the Hubble; Earth observation satellites from companies like Planet Labs, Umbra, and HawkEye 360; GPS; miniature CubeSats for education and research; and military/defense satellites.

Loading next visibility...
Identifier
66713, 2025-276AZ
Orbit
SSO
Country
Flag of USUS
Related business
Manufacturer
Planet
Mission
Operational Commercial Imaging
Bus & Motor
CUBESAT 3U, Unknown motor
Mass
5.7 kg wet, 5.7 kg dry
Launch date (UTC)
2025-11-28 (6 months ago)
Launch vehicle
FALCON 9
Launch site
Air Force Western Test Range (AFWTR)
Object type
Payload
Rocket body
Debris
Shape & HBR
Box + 2 Pan, 1.0 m
Radar Cross Section
0.072 m²

Expand to show TLE details & history
Last TLE update: 10 hours ago

TLE from 10 hours ago
0 FLOCK 4H 10
1 66713U 25276AZ  26144.77650014  .00004914  00000-0  23443-3 0  9999
2 66713  97.4194 218.6584 0006171  89.2132 270.9810 15.19518560 26863
Epoch: 2026-05-24T18:38Z
TLE epoch observation values (Epoch: 2026-05-24T18:38:09.612Z)
Latitude
0.00001°
Longitude
56.74456°
Altitude
510.314 km
Speed
7.609 km/s
True Right ascension
14h 34m 38s
True Declination
0° 00' 00"
Sunlit
Object was in full shadow at epoch
Visualization orbit readout
Latitude
Unknown
Longitude
Unknown
Altitude
Unknown
Speed
Unknown
Apparent Right ascension
Unknown
Apparent Declination
Unknown
Sunlit
N/A
Visualization observer readout
Local Sidereal Time
14:11:46
Azimuth
Unknown
Elevation
Unknown
Doppler factor
Unknown
Orbital elements
Apogee altitude
508.509 km
Perigee altitude
500.015 km
Semi-major axis
6,882.399 km
Eccentricity
0.00062
Inclination
97.4194°
RAAN
218.6584°
Arg. of periapsis
89.2132°
True anomaly
270.91029°
Mean anomaly
270.981°
Eccentric anomaly
270.94565°
Mean motion
3.80131 °/min
Orbital period
94.7 mins
BSTAR
0.00023443
Loading maneuver chart data...
Computing Atmospheric mass density...
Loading historical data...
Loading historical data...
Loading historical data...
Loading historical data...
Loading historical data...
Loading historical data...
Loading historical data...

Documentation

Showing up to 5 results
|